TimeEDT,TemperatureF,Dew PointF,Humidity,Sea Level PressureIn,VisibilityMPH,Wind Direction,Wind SpeedMPH,Gust SpeedMPH,PrecipitationIn,Events,Conditions,WindDirDegrees,DateUTC
12:06 AM,57.9,55.9,93,29.97,10.0,Calm,Calm,-,N/A,,Overcast,0,2013-10-17 04:06:00
12:39 AM,57.9,55.9,93,29.96,10.0,Calm,Calm,-,N/A,,Overcast,0,2013-10-17 04:39:00
12:54 AM,57.9,55.0,90,29.95,10.0,NNW,3.5,-,N/A,,Overcast,340,2013-10-17 04:54:00
1:06 AM,57.9,54.0,87,29.96,10.0,Calm,Calm,-,N/A,,Overcast,0,2013-10-17 05:06:00
1:46 AM,57.0,54.0,89,29.96,10.0,NNW,4.6,-,N/A,,Overcast,330,2013-10-17 05:46:00
1:54 AM,57.0,53.1,87,29.95,10.0,NNW,4.6,-,N/A,,Overcast,340,2013-10-17 05:54:00
2:54 AM,55.9,52.0,87,29.94,10.0,North,3.5,-,0.00,,Overcast,360,2013-10-17 06:54:00
3:54 AM,55.0,50.0,83,29.93,10.0,NE,5.8,-,0.02,,Overcast,40,2013-10-17 07:54:00
4:52 AM,53.6,50.0,88,29.92,10.0,East,5.8,-,0.00,,Overcast,80,2013-10-17 08:52:00
4:54 AM,54.0,51.1,90,29.91,10.0,East,8.1,-,0.00,,Overcast,80,2013-10-17 08:54:00
5:17 AM,54.0,51.1,90,29.91,10.0,North,4.6,-,N/A,,Overcast,360,2013-10-17 09:17:00
5:54 AM,54.0,48.9,83,29.90,10.0,NNE,4.6,-,N/A,,Overcast,30,2013-10-17 09:54:00
6:54 AM,54.0,48.9,83,29.90,10.0,NE,5.8,-,N/A,,Overcast,40,2013-10-17 10:54:00
7:54 AM,53.1,48.9,86,29.91,10.0,NNW,4.6,-,N/A,,Overcast,340,2013-10-17 11:54:00
8:54 AM,53.1,48.9,86,29.90,10.0,North,5.8,-,0.00,,Overcast,360,2013-10-17 12:54:00
9:54 AM,52.0,48.9,89,29.93,3.0,NW,5.8,-,0.00,Rain,Light Rain,320,2013-10-17 13:54:00
10:22 AM,52.0,50.0,93,29.94,2.5,NW,6.9,-,0.01,Rain,Light Rain,310,2013-10-17 14:22:00
10:35 AM,52.0,50.0,93,29.95,2.5,NW,8.1,-,0.02,Rain,Light Rain,310,2013-10-17 14:35:00
10:54 AM,52.0,48.9,89,29.95,2.5,WNW,5.8,-,0.04,Rain,Light Rain,290,2013-10-17 14:54:00
11:07 AM,52.0,50.0,93,29.95,2.5,West,5.8,-,0.01,Rain,Light Rain,280,2013-10-17 15:07:00
11:46 AM,53.1,50.0,89,29.95,10.0,WNW,8.1,-,0.02,Rain,Light Rain,290,2013-10-17 15:46:00
11:54 AM,52.0,48.9,89,29.94,7.0,NW,3.5,-,0.02,Rain,Light Rain,320,2013-10-17 15:54:00
12:07 PM,52.0,48.9,89,29.95,1.8,WNW,5.8,-,0.02,Rain,Heavy Rain,290,2013-10-17 16:07:00
12:16 PM,52.0,50.0,93,29.95,2.0,West,8.1,-,0.07,Rain,Light Rain,280,2013-10-17 16:16:00
12:24 PM,52.0,50.0,93,29.94,5.0,WNW,5.8,-,0.07,Rain,Light Rain,300,2013-10-17 16:24:00
12:34 PM,53.1,50.0,89,29.94,6.0,West,8.1,-,0.07,Rain,Light Rain,280,2013-10-17 16:34:00
12:54 PM,53.1,48.9,86,29.94,10.0,West,8.1,-,0.07,Rain,Light Rain,280,2013-10-17 16:54:00
1:54 PM,55.0,48.9,80,29.92,10.0,Variable,6.9,-,0.00,,Mostly Cloudy,0,2013-10-17 17:54:00
2:07 PM,55.0,48.0,77,29.92,10.0,WNW,4.6,-,N/A,,Mostly Cloudy,300,2013-10-17 18:07:00
2:14 PM,57.0,48.9,74,29.92,10.0,Variable,6.9,-,N/A,,Scattered Clouds,0,2013-10-17 18:14:00
2:43 PM,57.0,48.0,72,29.92,10.0,West,9.2,-,N/A,,Mostly Cloudy,260,2013-10-17 18:43:00
2:54 PM,55.9,48.0,75,29.91,10.0,WSW,10.4,-,N/A,,Overcast,250,2013-10-17 18:54:00
3:02 PM,55.9,48.9,77,29.92,10.0,West,9.2,-,N/A,,Overcast,260,2013-10-17 19:02:00
3:54 PM,57.0,48.0,72,29.93,10.0,West,12.7,23.0,N/A,,Overcast,270,2013-10-17 19:54:00
4:01 PM,55.9,46.9,72,29.93,10.0,West,11.5,-,N/A,,Overcast,280,2013-10-17 20:01:00
4:14 PM,55.9,46.9,72,29.94,10.0,West,15.0,-,N/A,,Overcast,260,2013-10-17 20:14:00
4:54 PM,55.9,48.0,75,29.94,10.0,WSW,4.6,-,N/A,,Overcast,240,2013-10-17 20:54:00
5:54 PM,55.9,46.9,72,29.94,10.0,West,6.9,-,N/A,,Overcast,260,2013-10-17 21:54:00
6:54 PM,54.0,46.9,77,29.96,10.0,SW,4.6,-,N/A,,Mostly Cloudy,220,2013-10-17 22:54:00
7:54 PM,54.0,48.0,80,29.98,10.0,SSW,5.8,-,N/A,,Overcast,210,2013-10-17 23:54:00
8:54 PM,51.1,46.9,86,29.99,10.0,SSW,5.8,-,N/A,,Partly Cloudy,210,2013-10-18 00:54:00
9:54 PM,50.0,46.0,86,30.01,10.0,SW,3.5,-,N/A,,Clear,220,2013-10-18 01:54:00
10:54 PM,46.0,44.1,93,30.02,5.0,West,3.5,-,N/A,,Scattered Clouds,260,2013-10-18 02:54:00
11:54 PM,46.9,45.0,93,30.03,10.0,SSW,3.5,-,N/A,,Mostly Cloudy,210,2013-10-18 03:54:00